[[{"header":{"parameterUnit":"m.s-1","parameterCategory":1,"la1":30.2991,"la2":30.254,"lo1":-89.0895,"lo2":-89.0444,"dy":0.0017,"dx":0.0017,"nx":28,"ny":28,"refTime":"2025-08-17T09:00:00:Z","depth":0,"parameterNumber":2,"parameterNumberName":"U-component_of_WINDS"},"data":[0,0,0,0,0,0,0,0,0,0,0,0,0,0,0,0,0,0,0,0,0,0,0,0,0,0,0,0,0,0,0,0,0,0,0,0,0,0,0,0,0,0,0,0,0,0,0,0,0,0,0,0,0,0,0,0,0,0,1.5335,1.5336,0,1.5395,1.5395,1.5396,1.5407,1.5406,1.5406,1.5406,1.5462,1.5464,1.5466,0,0,0,0,0,0,0,0,0,0,0,0,0,1.5226,1.5228,1.5335,1.5336,1.5337,1.5395,1.5395,1.5396,1.5407,1.5406,1.5406,1.5405,1.5462,1.5464,1.5466,0,0,0,0,0,0,0,0,0,0,0,0,0,1.5278,1.5229,1.5335,1.5349,1.5351,1.5395,1.5396,1.5397,1.5407,1.5406,1.5406,1.5405,1.5461,1.5464,1.5467,1.5499,0,0,1.5476,1.5477,0,0,0,0,0,0,0,0,1.5275,1.5282,1.5347,1.5348,1.5351,1.5393,1.5378,1.5431,1.5407,1.5386,1.5406,1.5405,1.544,1.5444,1.5457,1.5502,1.5504,1.5476,1.5478,1.5479,1.548,0,0,0,0,0,0,0,1.5272,1.528,1.5359,1.5347,1.535,1.5351,1.5358,1.5388,1.5416,1.5388,1.5389,1.5396,1.544,1.5454,1.5458,1.5505,1.5476,1.5478,1.548,1.5481,1.5577,1.5578,0,0,0,0,0,0,1.5266,1.5277,1.5357,1.5361,1.5311,1.5353,1.5361,1.538,1.5416,1.542,1.5396,1.5396,1.5449,1.5455,1.546,1.5499,1.5479,1.5482,1.5483,1.5576,1.5577,1.5578,0,0,0,0,0,0,1.5264,1.5273,1.5355,1.5319,1.5329,1.5356,1.5377,1.5381,1.5395,1.5422,1.5427,1.5405,1.5449,1.5456,1.5489,1.5501,1.5483,1.5486,1.5575,1.5576,1.5577,1.5578,0,0,0,0,0,0,1.5261,1.5272,1.5286,1.5319,1.5331,1.5384,1.5378,1.5383,1.54,1.5401,1.5432,1.5436,1.5449,1.5485,1.5492,1.5505,1.5488,1.5574,1.5576,1.5577,1.5577,1.5579,1.558,0,0,0,0,0,1.5257,1.5284,1.5287,1.5297,1.5349,1.5385,1.5391,1.5407,1.5401,1.5415,1.5432,1.5435,1.5499,1.5488,1.5496,1.551,1.5573,1.5575,1.5577,1.5576,1.5578,1.558,0,0,0,0,0,0,1.525,1.5288,1.5292,1.5331,1.5355,1.5386,1.5404,1.5409,1.5434,1.5433,1.545,1.5456,1.5488,1.5502,1.549,1.5542,1.5535,1.5539,1.5532,1.5534,1.5536,1.5532,1.549,0,0,0,0,0,1.5254,1.5281,1.5312,1.5343,1.5354,1.5377,1.5393,1.5403,1.5427,1.5437,1.5457,1.5479,1.5504,1.552,1.5545,1.5579,1.5585,1.5592,1.5594,1.5595,1.5598,1.5615,1.5619,1.5584,1.5584,1.5584,0,0,1.526,1.5284,1.53,1.5342,1.5361,1.5387,1.5385,1.5413,1.5432,1.5441,1.5473,1.5488,1.5514,1.5547,1.5563,1.556,1.5609,1.5598,1.5599,1.5601,1.5617,1.5621,1.5624,1.5585,1.5585,1.5584,0,0,1.5286,1.5307,1.5335,1.5354,1.5384,1.5399,1.5405,1.5436,1.5446,1.5479,1.5486,1.5508,1.5551,1.5569,1.5583,1.5613,1.5617,1.5621,1.563,1.5647,1.5649,1.5652,1.5661,1.5664,1.5623,1.5623,1.5623,0,1.529,1.5331,1.5348,1.5375,1.5392,1.5402,1.5429,1.5447,1.5482,1.5493,1.549,1.5543,1.5561,1.5598,1.5605,1.5617,1.5623,1.5617,1.5648,1.5651,1.5653,1.5662,1.5666,1.5623,1.5623,1.5623,1.5623,0,1.5333,1.5361,1.5379,1.5415,1.5434,1.5461,1.548,1.5497,1.5504,1.5519,1.5551,1.5573,1.5601,1.5611,1.5619,1.5648,1.5645,1.5645,1.5638,1.5656,1.5665,1.5669,1.5624,1.5624,1.5624,1.5624,0,0,1.5357,1.54,1.5407,1.5422,1.5455,1.5476,1.5502,1.5531,1.5544,1.5568,1.5589,1.5624,1.5624,1.564,1.565,1.5664,1.5685,1.5662,1.5663,1.5664,1.5717,1.5716,1.572,1.5687,1.5688,1.5689,1.5714,0,1.5385,1.5434,1.5449,1.5489,1.5514,1.5523,1.5545,1.5567,1.558,1.5602,1.5616,1.5641,1.5639,1.5649,1.5664,1.5679,1.5695,1.5678,1.5705,1.5706,1.5698,1.5725,1.5725,1.5748,1.5718,1.5718,1.5719,0,1.5425,1.545,1.5493,1.5521,1.5532,1.5552,1.5579,1.56,1.5623,1.5632,1.565,1.5658,1.5683,1.5675,1.571,1.5697,1.5709,1.5718,1.5719,1.5722,1.5713,1.5727,1.5756,1.5759,1.5724,1.5724,1.5724,0,1.5436,1.548,1.5511,1.5524,1.5558,1.5572,1.5586,1.5609,1.5625,1.5648,1.5658,1.5683,1.5696,1.5714,1.5728,1.5721,1.576,1.5754,1.5767,1.5766,1.5774,1.5773,1.5804,1.5783,1.5783,1.5783,1.5783,0,1.5465,1.5491,1.5517,1.5535,1.5563,1.558,1.5606,1.5621,1.5641,1.5661,1.567,1.5689,1.5706,1.5727,1.5737,1.5763,1.5769,1.5775,1.5778,1.5774,1.5773,1.5782,1.578,1.5784,1.5784,1.5784,1.5783,0,1.5483,1.5501,1.5535,1.5565,1.5572,1.5591,1.5616,1.5633,1.5647,1.5672,1.5679,1.57,1.5724,1.574,1.577,1.5777,1.5805,1.5807,1.5797,1.5798,1.581,1.5808,1.5847,1.5852,1.5828,1.5828,1.5828,0,1.55,1.552,1.5551,1.5566,1.5581,1.5605,1.5621,1.5637,1.5653,1.5681,1.5694,1.5719,1.574,1.5778,1.5795,1.5817,1.582,1.5832,1.5823,1.5818,1.5818,1.5817,1.5818,1.5833,1.5833,1.5833,1.5833,0,1.5528,1.5536,1.556,1.5586,1.5605,1.5627,1.5648,1.5659,1.5678,1.5696,1.5721,1.5737,1.5768,1.5792,1.5816,1.5829,1.5834,1.5836,1.584,1.5836,1.5829,1.5832,1.58,1.5835,1.5835,1.5835,1.5834,1.5834,1.5545,1.5562,1.5587,1.5613,1.563,1.565,1.5667,1.5683,1.5705,1.5732,1.574,1.5766,1.5787,1.582,1.5833,1.5853,1.5851,1.5857,1.5858,1.5859,1.5859,1.5827,1.5857,1.5857,1.5857,1.5857,1.5857,0,1.5573,1.5589,1.5612,1.5642,1.5661,1.5665,1.5688,1.5704,1.5727,1.5747,1.5767,1.5795,1.5818,1.5836,1.5859,1.5871,1.5874,1.5876,1.5875,1.5878,1.5859,1.5853,1.5874,1.5874,1.5874,1.5874,1.5874,1.5874,1.5589,1.5618,1.5629,1.5666,1.5682,1.5708,1.5721,1.5738,1.5754,1.5785,1.5804,1.5817,1.5835,1.5859,1.588,1.5884,1.5892,1.5894,1.5899,1.5881,1.5879,1.5878,1.5872,1.5896,1.5896,1.5916,1.5916,1.5916]},{"header":{"parameterUnit":"m.s-1","parameterCategory":1,"la1":30.2991,"la2":30.254,"lo1":-89.0895,"lo2":-89.0444,"dy":0.0017,"dx":0.0017,"nx":28,"ny":28,"refTime":"2025-08-17T09:00:00:Z","depth":0,"parameterNumber":3,"parameterNumberName":"V-component_of_WINDS"},"data":[0,0,0,0,0,0,0,0,0,0,0,0,0,0,0,0,0,0,0,0,0,0,0,0,0,0,0,0,0,0,0,0,0,0,0,0,0,0,0,0,0,0,0,0,0,0,0,0,0,0,0,0,0,0,0,0,0,0,2.1432,2.143,0,2.1178,2.1175,2.1172,2.1023,2.1023,2.1022,2.1021,2.0752,2.0746,2.074,0,0,0,0,0,0,0,0,0,0,0,0,0,2.178,2.1775,2.1433,2.1429,2.1426,2.1178,2.1175,2.1171,2.1023,2.1023,2.1022,2.1021,2.0755,2.0747,2.0739,0,0,0,0,0,0,0,0,0,0,0,0,0,2.1588,2.1773,2.1433,2.1323,2.131,2.1179,2.1175,2.117,2.1023,2.1023,2.1022,2.1021,2.0757,2.0748,2.0738,2.0694,0,0,2.0707,2.0703,0,0,0,0,0,0,0,0,2.1599,2.1575,2.1342,2.133,2.1316,2.1132,2.1199,2.101,2.1024,2.1132,2.1021,2.102,2.0879,2.0859,2.0813,2.0682,2.067,2.0707,2.0701,2.0696,2.0694,0,0,0,0,0,0,0,2.1612,2.1585,2.1331,2.1339,2.1323,2.1282,2.1254,2.1162,2.1013,2.1123,2.1111,2.1084,2.0871,2.0823,2.0805,2.0666,2.0707,2.0698,2.0692,2.0688,2.0481,2.0482,0,0,0,0,0,0,2.1645,2.1597,2.134,2.1324,2.1458,2.1277,2.1245,2.1191,2.1014,2.0986,2.1085,2.1078,2.084,2.0817,2.0795,2.073,2.0696,2.0687,2.0681,2.0481,2.0482,2.0482,0,0,0,0,0,0,2.1653,2.1623,2.135,2.1457,2.142,2.1272,2.1213,2.1187,2.1138,2.0985,2.0957,2.1063,2.0838,2.0809,2.072,2.0718,2.0683,2.0674,2.048,2.0481,2.0482,2.0601,0,0,0,0,0,0,2.1663,2.1627,2.1612,2.1458,2.1415,2.1283,2.1213,2.1183,2.1122,2.1111,2.0957,2.0931,2.0835,2.0736,2.071,2.0704,2.0666,2.048,2.0481,2.0482,2.0596,2.0605,2.0613,0,0,0,0,0,2.1676,2.1654,2.1612,2.1581,2.1393,2.1283,2.1257,2.115,2.1123,2.1104,2.1005,2.0936,2.0723,2.0728,2.0698,2.0689,2.0479,2.0481,2.0482,2.0592,2.0604,2.0613,0,0,0,0,0,0,2.1809,2.1632,2.1583,2.1511,2.1414,2.1258,2.1232,2.1166,2.1072,2.1065,2.0933,2.0899,2.0822,2.0746,2.0755,2.0635,2.0593,2.0588,2.0688,2.0697,2.0706,2.0725,2.0658,0,0,0,0,0,2.183,2.1759,2.1607,2.1558,2.1512,2.1381,2.1329,2.1255,2.1147,2.1104,2.0999,2.0894,2.0803,2.0746,2.0654,2.0585,2.0547,2.0563,2.0572,2.0579,2.0576,2.053,2.0535,2.0486,2.0485,2.0485,0,0,2.1873,2.1767,2.173,2.1582,2.1498,2.1423,2.1347,2.1272,2.1214,2.1091,2.1001,2.092,2.0794,2.0714,2.0674,2.0648,2.0581,2.0581,2.0588,2.058,2.0532,2.0537,2.0541,2.0486,2.0486,2.0486,0,0,2.1912,2.1827,2.1775,2.1692,2.1566,2.1478,2.1466,2.132,2.1262,2.1169,2.1075,2.1003,2.085,2.0763,2.0699,2.0703,2.0634,2.0676,2.072,2.0677,2.0681,2.0684,2.0682,2.0684,2.0674,2.0674,2.0674,0,2.198,2.1867,2.1756,2.1687,2.1622,2.151,2.1455,2.1378,2.1228,2.1184,2.1159,2.0963,2.0871,2.0767,2.0768,2.0721,2.07,2.0693,2.069,2.0692,2.0692,2.0689,2.069,2.068,2.0679,2.0679,2.0678,0,2.1956,2.1879,2.1852,2.1711,2.1644,2.1582,2.1458,2.1402,2.1334,2.1248,2.1153,2.1038,2.0919,2.0889,2.0821,2.0775,2.0763,2.0716,2.0671,2.0705,2.07,2.0698,2.0689,2.0686,2.0685,2.0683,0,0,2.2072,2.187,2.1862,2.1795,2.1646,2.1583,2.1514,2.14,2.1354,2.1253,2.1189,2.1061,2.1016,2.0943,2.0863,2.0826,2.0833,2.0782,2.0777,2.0794,2.0771,2.0806,2.0807,2.0786,2.0786,2.0785,2.0781,0,2.2088,2.1962,2.1859,2.177,2.1695,2.1586,2.1524,2.1425,2.1342,2.1263,2.117,2.1081,2.1029,2.0984,2.0942,2.0841,2.0826,2.084,2.0722,2.0719,2.0756,2.0805,2.0842,2.0844,2.0778,2.0778,2.0777,0,2.2091,2.1996,2.19,2.1756,2.172,2.1668,2.1554,2.1482,2.1364,2.1306,2.1225,2.1142,2.1059,2.1024,2.0906,2.0918,2.0863,2.0806,2.0803,2.0787,2.075,2.0788,2.0842,2.0842,2.0774,2.0774,2.0774,0,2.2183,2.203,2.1952,2.1899,2.173,2.1695,2.1622,2.1505,2.1442,2.1341,2.1298,2.1188,2.1128,2.1043,2.093,2.0915,2.0824,2.0779,2.077,2.0773,2.0755,2.0757,2.0799,2.0723,2.0723,2.0723,2.0723,0,2.221,2.2155,2.1991,2.1943,2.1877,2.1757,2.1693,2.161,2.1506,2.1437,2.1335,2.1272,2.1129,2.1047,2.0958,2.0873,2.0846,2.0794,2.0771,2.0802,2.0809,2.0764,2.076,2.0723,2.0723,2.0723,2.0723,0,2.2302,2.219,2.2098,2.1945,2.1905,2.1863,2.173,2.1677,2.1589,2.1502,2.1475,2.1334,2.1232,2.1113,2.0971,2.0911,2.0832,2.0799,2.0873,2.0859,2.0856,2.0857,2.0869,2.0863,2.0794,2.0795,2.0796,0,2.2327,2.2282,2.2125,2.2072,2.2003,2.192,2.1856,2.1735,2.1671,2.1533,2.1495,2.1387,2.1293,2.1135,2.1017,2.0908,2.0869,2.0881,2.0852,2.0884,2.0866,2.087,2.0863,2.0889,2.089,2.0891,2.0892,0,2.2381,2.2328,2.2241,2.2133,2.206,2.1968,2.1873,2.1835,2.1693,2.1626,2.1522,2.145,2.1305,2.1197,2.1072,2.0993,2.0917,2.0902,2.0894,2.0925,2.0969,2.0942,2.0892,2.0902,2.0901,2.0901,2.09,2.09,2.2438,2.2392,2.2274,2.2179,2.2094,2.2007,2.1949,2.1853,2.1765,2.164,2.1572,2.1469,2.1348,2.1174,2.1097,2.1011,2.0985,2.0974,2.0971,2.0969,2.0977,2.0984,2.0988,2.0988,2.0987,2.0987,2.0986,0,2.2485,2.2404,2.2318,2.2187,2.2112,2.2051,2.194,2.188,2.1791,2.1687,2.1597,2.1475,2.1369,2.1243,2.1128,2.1083,2.1046,2.1057,2.1058,2.104,2.1008,2.1026,2.1089,2.1089,2.1089,2.1089,2.1089,2.1089,2.2501,2.2419,2.2351,2.2225,2.2142,2.2042,2.1984,2.1901,2.1816,2.1686,2.1598,2.1518,2.1403,2.1278,2.1177,2.1142,2.1103,2.1124,2.1079,2.1052,2.1043,2.1034,2.105,2.1117,2.1117,2.1117,2.1117,2.1117]}]]